Regional Weather Roundup
Issued by NWS Columbia, SC

Home | Current Version | Previous Version | Text Only | Print | Product List | Glossary On
Versions: 1 2 3 4 5 6 7 8 9 10 11 12 13 14 15 16 17 18 19 20 21 22 23 24 25 26 27 28 29 30 31 32 33 34 35 36 37 38 39 40 41 42 43 44 45 46 47 48 49 50
000
ASUS42 KCAE 130510
RWRCAE
REGIONAL WEATHER ROUNDUP
NATIONAL WEATHER SERVICE COLUMBIA SC
1200 AM EST WED DEC 13 2017

NOTE: "FAIR" INDICATES FEW OR NO CLOUDS BELOW 12,000 FEET WITH NO
SIGNIFICANT WEATHER AND/OR OBSTRUCTIONS TO VISIBILITY.

NOT ALL STATIONS ARE QUALITY CONTROLLED BY THE NATIONAL
WEATHER SERVICE. USE DATA WITH CAUTION...ESPECIALLY
DEWPOINT OBSERVATIONS.

SCZ001>056-GAZ040-063>065-077-130600-
...UPSTATE SOUTH CAROLINA...

CITY           SKY/WX    TMP DP  RH WIND       PRES   REMARKS
ANDERSON       CLEAR     35  17  47 W8        29.89S WCI  29
LIBERTY        CLEAR     32  15  49 W8        29.86S WCI  25
SPARTANBURG    CLEAR     34  10  37 N10       29.87S WCI  26
CLEMSON        CLEAR     33  14  45 W6        29.90R WCI  28
GREENVILLE     CLEAR     34  14  43 CALM      29.86S
GREENWOOD      CLEAR     33  19  56 W6        29.90S WCI  28
GREER          CLEAR     33  12  41 CALM      29.87S
ROCK HILL        N/A    N/A N/A N/A MISG        N/A
CHESTER        CLEAR     34  12  40 W6        29.88R WCI  29
LAURENS        CLEAR     34  21  60 W3        29.89R


...CENTRAL SOUTH CAROLINA...

CITY           SKY/WX    TMP DP  RH WIND       PRES   REMARKS
COLUMBIA APT   CLEAR     39  26  59 W9        29.89R WCI  33
COLUMBIA OWENS FLURRIES  38  22  52 CALM      29.90R
MCENTIRE ANGB  CLEAR     34  20  55 N6        29.89R WCI  29
ORANGEBURG     CLEAR     41  25  53 NW10      29.90R
SUMTER SHAW    CLEAR     37  17  45 W5        29.86R WCI  33
NEWBERRY       CLEAR     34  23  64 W6        29.91S WCI  29
AIKEN          FAIR      36  21  55 W5        29.93R WCI  32
BARNWELL         N/A     43  25  49 W8        29.91S
MANNING        FAIR      41  21  45 MISG      29.89R
CAMDEN         FAIR      36  16  44 CALM      29.88S
LANCASTER      CLEAR     32  14  47 W5        29.87S WCI  27
WINNSBORO      CLEAR     34  19  55 NW7       29.87S WCI  28


...EASTERN AND COASTAL SOUTH CAROLINA...

CITY           SKY/WX    TMP DP  RH WIND       PRES   REMARKS
MYRTLE BEACH   CLEAR     42  21  43 NW9       29.86R
N MYRTLE BCH   CLEAR     42  14  32 NW9G17    29.84R
CONWAY         FAIR      39  19  45 N5        29.86R
MARION         FAIR      36  18  48 NW7       29.87R WCI  30
HARTSVILLE     FAIR      32  21  64 CALM      29.86S
FLORENCE       CLEAR     38  18  44 NW8       29.87R WCI  32
DARLINGTON     CLEAR     36  19  50 NW6       29.87R WCI  31
CHARLESTON APT PTCLDY    44  29  55 W9        29.89R
MOUNT PLEASANT FAIR      45  30  57 W9G16     29.88R
WALTERBORO     PTCLDY    43  27  52 NW8G16    29.91R
BEAUFORT       CLEAR     45  30  55 W8        29.91S


...EASTERN GEORGIA...

CITY           SKY/WX    TMP DP  RH WIND       PRES   REMARKS
AUGUSTA BUSH F CLEAR     41  22  46 W10       29.93S
AUGUSTA DANIEL CLEAR     41  22  46 W8        29.92S
THOMSON        CLEAR     38  22  52 NW6       29.98F WCI  33
WASHINGTON     FAIR      36  21  55 W9        29.93S WCI  29
CLAXTON        FAIR      45  32  60 SW9       29.96S
SYLVANIA       CLEAR     42  32  67 NW9       29.94R
STATESBORO     CLEAR     44  27  52 NW9       29.95R
SAVANNAH       CLEAR     44  30  57 W10       29.94S


...SOUTHERN NORTH CAROLINA...

CITY           SKY/WX    TMP DP  RH WIND       PRES   REMARKS
CHARLOTTE      CLEAR     33   5  30 NW3       29.86R
MONROE         CLEAR     34  11  38 NW9       29.84S WCI  27
WADESBORO      CLEAR     34  14  44 N6        29.87R WCI  29
ASHEVILLE      CLEAR     26   5  40 NW21G31   29.82R WCI  12

$$



USA.gov is the U.S. government's official web portal to all federal, state and local government web resources and services.